#timestamp,LO_Frequency,Hit,StdDev 
1457013615.1,286047000.9,N
1457013616.0,286047000.9,N
1457013635.8,286046999.6,N
1457013655.7,286046998.0,N
1457013675.5,286046996.6,N
1457013695.3,286046995.7,N
1457013715.2,286046992.1,N
1457013735.9,286046994.5,N
1457013755.7,286046992.6,N
1457013775.6,286046991.7,N
1457013795.4,286046995.4,N
1457013815.2,286046991.8,N
1457013835.0,286046992.3,N
1457013835.9,286046992.3,N
1457013855.8,286046990.2,N
1457013875.6,286046990.4,N
1457013895.4,286046990.2,N
1457013915.3,286046990.4,N
1457013935.1,286046991.6,N
1457013955.8,286046989.9,N
1457013975.7,286046989.9,N
1457013995.5,286046989.1,N
1457014015.3,286046991.4,N
1457014035.2,286046988.5,N
1457014055.9,286046988.8,N
1457014075.7,286046989.7,N
1457014095.6,286046991.0,N
1457014115.4,286046993.1,N
1457014135.2,286046989.4,N
1457014155.0,286046990.8,N
1457014156.0,286046990.8,N
1457014175.8,286046991.8,N
1457014195.6,286046995.5,N
1457014215.4,286046998.5,N
1457014235.3,286046998.7,N
1457014255.1,286046998.1,N
1457014275.8,286047000.3,N
1457014295.7,286047002.2,N
1457014315.5,286047004.3,N
1457014335.3,286047004.7,N
1457014355.2,286047005.9,N
1457014375.9,286047005.7,N
1457014395.7,286046999.7,N
1457014415.6,286047001.5,N
1457014435.4,286047003.3,N
1457014455.2,286047003.3,N
1457014475.1,286047003.3,N
1457014476.0,286047003.3,N
1457014495.8,286047000.3,N
1457014515.6,286046999.2,N
1457014535.4,286046999.4,N
1457014555.3,286047002.6,N
1457014575.1,286046999.0,N
1457014595.8,286046994.9,N
1457014615.7,286046997.4,N
1457014635.5,286046999.6,N
1457014655.3,286046998.3,N
1457014675.2,286046999.2,N
1457014695.9,286046997.9,N
1457014715.7,286046998.0,N
1457014735.6,286046998.9,N
1457014755.4,286046997.8,N
1457014775.2,286046995.8,N
1457014795.1,286046996.9,N
1457014796.0,286046996.9,N
1457014815.8,286046997.4,N
1457014835.6,286046997.2,N
1457014855.5,286046997.1,N
1457014875.3,286046995.0,N
1457014895.1,286046995.7,N
1457014915.8,286046993.1,N
1457014935.7,286046989.2,Y
1457014955.5,286046991.8,P
1457014975.3,286046995.9,N
1457014995.2,286046993.7,N
1457015015.0,286046994.8,N
1457015015.9,286046994.8,N
1457015035.8,286046989.2,Y
1457015055.6,286046993.4,P
1457015075.4,286046997.2,P
1457015095.2,286046996.8,N
1457015115.1,286046998.1,N
1457015116.0,286046998.1,N
1457015135.8,286046997.6,N
1457015155.6,286046998.5,N
1457015175.5,286046998.7,N
1457015195.3,286046998.4,N
1457015215.1,286047000.8,N
1457015235.9,286047000.7,N
1457015255.7,286046998.1,N
1457015275.5,286046998.0,N
1457015295.4,286046997.7,N
1457015315.2,286046996.3,N
1457015335.0,286046988.5,Y
1457015335.9,286046988.5,P
1457015355.8,286046993.7,N
1457015375.6,286046993.5,N
1457015395.4,286046993.6,N
1457015415.3,286046993.8,N
1457015435.1,286046992.7,N
1457015436.0,286046992.7,N
1457015455.8,286046994.2,N
1457015475.7,286046990.6,Y
1457015495.5,286047000.5,P
1457015515.3,286047001.0,N
1457015535.2,286046996.8,N
1457015555.9,286046997.9,N
1457015575.7,286046999.4,N
1457015595.6,286046997.7,N
1457015615.4,286046997.6,N
1457015635.2,286046997.5,N
1457015655.0,286046998.5,N
1457015655.9,286046998.5,N
1457015675.8,286046997.3,N
1457015695.6,286046995.5,N
1457015715.4,286046997.6,N
1457015735.3,286046997.4,N
1457015755.1,286046992.7,Y
1457015775.8,286046992.2,P
1457015795.7,286046994.1,N
1457015815.5,286046993.4,N
1457015835.3,286046993.7,Y
1457015855.2,286046999.3,P
1457015875.0,286047000.5,N
1457015875.9,286047000.5,N
1457015895.7,286047002.7,N
1457015915.6,286047000.6,N
1457015935.4,286046998.2,N
1457015955.2,286046999.2,N
1457015975.1,286046997.7,N
1457015976.0,286046997.7,N
1457015995.8,286046998.8,N
1457016015.6,286046997.9,N
1457016035.5,286046999.1,N
1457016055.3,286047000.4,N
1457016075.1,286047002.4,N
1457016095.9,286046999.2,N
1457016115.7,286047000.0,N
1457016135.5,286047000.8,N
1457016155.3,286046996.8,N
1457016175.2,286046993.5,Y
1457016195.0,286046995.6,P
1457016195.9,286046995.6,N
1457016215.8,286046995.5,N
1457016235.6,286046991.8,Y
1457016255.4,286046996.6,P
1457016275.3,286046997.0,P
1457016295.1,286046997.6,P
1457016296.0,286046997.6,Y
1457016315.8,286046998.5,P
1457016335.7,286046999.0,N
1457016355.5,286046999.2,N
1457016375.3,286046996.7,Y
1457016395.2,286046996.5,P
1457016415.9,286046999.0,N
1457016435.7,286047000.0,N
1457016455.6,286046997.2,N
1457016475.4,286046997.7,N
1457016495.2,286046999.3,N
1457016515.0,286046997.0,N
1457016516.0,286046997.0,N
1457016535.8,286046996.8,N
1457016555.6,286046998.0,N
1457016575.5,286046995.3,Y
1457016595.3,286046999.5,P
1457016615.1,286046995.7,P
1457016635.8,286046995.8,N
1457016655.7,286046995.9,N
1457016675.5,286046993.5,Y
1457016695.3,286046995.7,P
1457016715.2,286046994.2,P
1457016735.0,286046990.5,P
1457016735.9,286046990.5,Y
1457016755.8,286046993.7,P
1457016775.6,286046995.6,P
1457016795.4,286046994.2,P
1457016815.3,286046992.9,Y
1457016835.1,286046999.3,P
1457016836.0,286046999.3,N
1457016855.8,286046996.6,N
1457016875.7,286046997.3,N
1457016895.5,286046993.3,Y
1457016915.3,286046997.4,P
1457016935.2,286046995.2,P
1457016955.9,286046995.8,P
1457016975.7,286046998.5,N
1457016995.5,286047001.0,N
1457017015.4,286047003.2,N
1457017035.2,286046999.7,N
1457017055.0,286046998.3,N
1457017055.9,286046998.3,N
1457017075.8,286046995.3,N
1457017095.6,286046996.3,N
1457017115.4,286046994.8,N
1457017135.3,286046989.1,Y
1457017155.1,286046986.9,P
1457017175.8,286046987.6,N
1457017195.7,286046985.6,N
